Precipitable_Water
1.15 1.11 1.07 1.06 1.10 1.12 1.11 1.05 1.00 0.97 0.94 0.91 0.88 0.84 0.86 0.87 0.88 0.93 0.97 1.00 1.05 1.10 1.17 1.29 1.33 1.35 1.36 1.23 1.19 1.11 1.05 1.00
1.13 1.10 1.07 1.05 1.09 1.11 1.09 1.04 1.00 0.96 0.92 0.89 0.86 0.89 0.94 0.97 1.00 1.02 1.06 1.13 1.19 1.28 1.36 1.33 1.38 1.40 1.27 1.15 1.07 1.01 0.96 0.90
1.17 1.13 1.09 1.07 1.09 1.11 1.06 1.01 0.96 0.92 0.87 0.83 0.86 0.96 1.05 1.20 1.10 1.15 1.20 1.29 1.37 1.39 1.35 1.29 1.18 1.10 1.04 1.01 0.99 0.92 0.90 0.80
1.13 1.16 1.16 1.13 1.09 1.07 1.01 0.95 0.89 0.85 0.84 1.08 1.27 1.29 1.36 1.16 1.18 1.28 1.34 1.39 1.40 1.32 1.24 1.20 1.13 1.07 1.02 0.98 0.90 0.85 0.82 0.81
1.18 1.19 1.22 1.17 1.10 1.08 0.98 0.92 0.95 0.97 1.02 1.29 1.56 1.24 1.57 1.26 1.36 1.51 1.54 1.50 1.45 1.45 1.34 1.26 1.13 1.08 1.03 0.98 0.89 0.82 0.82 0.88
1.24 1.26 1.24 1.20 1.11 1.08 1.00 1.05 1.15 1.15 1.07 1.54 1.50 1.24 1.34 1.51 1.61 1.70 1.70 1.68 1.64 1.60 1.42 1.18 1.10 1.06 0.94 0.92 0.84 0.79 0.75 0.80
1.28 1.32 1.20 1.23 1.11 1.17 1.16 1.20 1.21 1.32 1.24 1.39 1.39 1.39 1.49 1.61 1.64 1.71 1.74 1.75 1.62 1.43 1.25 1.07 0.95 0.90 0.83 0.84 0.78 0.74 0.77 0.80
1.41 1.31 1.22 1.32 1.22 1.34 1.28 1.40 1.32 1.38 1.28 1.22 1.34 1.50 1.55 1.50 1.53 1.62 1.66 1.58 1.41 1.25 1.04 0.91 0.79 0.70 0.69 0.72 0.74 0.79 0.75 0.73
1.37 1.40 1.28 1.30 1.28 1.32 1.28 1.32 1.25 1.43 1.26 1.28 1.40 1.48 1.46 1.39 1.40 1.46 1.43 1.40 1.30 1.11 0.92 0.82 0.71 0.63 0.58 0.67 0.74 0.79 0.81 0.77
1.39 1.41 1.29 1.25 1.39 1.26 1.29 1.27 1.25 1.23 1.28 1.23 1.36 1.36 1.33 1.34 1.40 1.41 1.47 1.35 1.12 0.97 0.84 0.71 0.61 0.54 0.63 0.73 0.81 0.79 0.77 0.82
1.39 1.41 1.32 1.28 1.42 1.27 1.35 1.19 1.25 1.23 1.19 1.15 1.23 1.28 1.32 1.36 1.34 1.33 1.29 1.14 1.02 0.93 0.78 0.64 0.57 0.63 0.66 0.74 0.76 0.75 0.71 0.58
1.47 1.45 1.40 1.32 1.29 1.33 1.34 1.22 1.26 1.24 1.19 1.22 1.26 1.27 1.33 1.28 1.33 1.26 1.10 0.99 0.97 0.87 0.70 0.69 0.65 0.64 0.67 0.69 0.68 0.63 0.61 0.54
1.48 1.45 1.32 1.33 1.28 1.21 1.22 1.16 1.15 1.13 1.16 1.18 1.19 1.23 1.19 1.03 1.07 1.09 1.08 0.95 0.95 0.85 0.78 0.72 0.66 0.67 0.64 0.62 0.62 0.58 0.52 0.51
1.48 1.44 1.35 1.36 1.38 1.25 1.27 1.19 1.15 1.09 1.04 1.07 0.98 0.84 0.81 0.82 0.89 0.91 1.07 0.98 0.89 0.86 0.77 0.66 0.63 0.65 0.60 0.59 0.50 0.47 0.48 0.50
1.45 1.45 1.42 1.44 1.41 1.36 1.31 1.23 1.12 0.98 0.95 0.86 0.73 0.72 0.73 0.83 0.89 0.98 1.06 1.04 0.95 0.86 0.78 0.69 0.55 0.64 0.67 0.66 0.51 0.44 0.47 0.54
1.48 1.47 1.45 1.42 1.36 1.35 1.22 1.09 0.94 0.88 0.86 0.72 0.69 0.75 0.82 0.87 0.96 1.06 1.10 1.09 0.99 0.86 0.78 0.68 0.58 0.55 0.61 0.68 0.73 0.60 0.46 0.42
1.46 1.49 1.48 1.44 1.41 1.33 1.23 1.11 0.98 0.88 0.76 0.68 0.68 0.76 0.79 0.89 1.03 1.06 1.04 1.03 0.94 0.86 0.76 0.72 0.66 0.61 0.57 0.54 0.56 0.51 0.52 0.45
1.46 1.43 1.45 1.51 1.49 1.37 1.27 1.13 0.84 0.82 0.74 0.67 0.71 0.75 0.74 0.86 1.03 0.97 0.99 0.96 0.88 0.87 0.75 0.70 0.64 0.66 0.63 0.61 0.59 0.56 0.53 0.38
1.42 1.38 1.36 1.50 1.50 1.38 1.30 1.07 0.86 0.82 0.75 0.70 0.75 0.77 0.75 0.76 0.87 0.91 0.94 0.94 0.85 0.79 0.72 0.70 0.66 0.65 0.65 0.60 0.58 0.52 0.51 0.36
1.36 1.30 1.33 1.53 1.46 1.37 1.31 1.03 0.88 0.87 0.81 0.80 0.79 0.77 0.75 0.75 0.74 0.80 0.82 0.85 0.81 0.79 0.72 0.73 0.71 0.68 0.63 0.60 0.53 0.43 0.34 0.29
Wind_Speed
15 15 14 13 12 11 10 9 9 9 8 7 7 6 6 5 4 4 3 3 2 3 3 3 3 4 4 6 7 7 8 9
16 15 14 14 13 11 10 10 9 8 8 7 6 5 5 4 4 3 3 2 2 2 2 2 3 3 5 6 7 8 8 9
17 16 15 14 13 12 11 10 9 8 8 7 6 5 4 3 3 3 3 3 2 2 2 2 3 4 6 7 8 8 8 8
18 17 16 15 14 13 11 10 9 8 8 7 5 5 4 3 3 3 3 3 2 2 2 3 4 5 6 7 8 7 7 8
19 18 17 16 14 14 12 11 9 8 8 7 7 5 5 3 3 3 3 2 2 1 1 4 5 6 7 7 6 7 8 9
20 20 19 17 15 14 13 12 10 9 10 7 8 7 6 4 5 5 4 3 2 1 4 5 6 7 7 5 6 7 8 9
22 21 20 17 16 15 13 13 10 10 10 9 8 8 6 6 6 6 5 3 2 4 5 6 7 6 6 6 6 7 8 9
23 22 20 18 16 15 14 12 11 10 10 9 9 8 7 6 6 6 5 5 5 5 5 6 6 5 5 5 6 7 9 9
25 22 22 19 16 16 15 13 12 11 10 10 9 8 8 6 6 6 7 6 5 5 5 5 5 4 4 5 6 7 8 10
27 24 22 21 17 18 16 16 14 12 11 10 10 9 8 7 7 7 6 6 5 5 5 4 4 3 4 6 7 8 9 9
27 25 23 22 19 18 17 17 15 14 12 11 10 10 9 8 7 7 6 6 5 5 4 3 2 2 4 6 8 8 8 8
28 26 24 22 21 19 17 19 16 14 13 11 11 10 10 7 8 7 6 6 6 5 3 2 2 3 4 7 7 7 6 6
29 26 26 23 22 20 20 20 17 15 13 12 11 11 10 9 9 8 7 6 6 5 3 3 2 2 5 5 6 6 5 5
30 28 27 24 23 21 22 21 18 16 14 12 12 11 11 10 9 9 7 6 6 5 5 3 3 3 4 4 5 5 5 5
30 29 28 26 23 23 23 20 18 16 14 13 11 11 11 10 9 9 7 6 6 6 5 5 5 5 5 7 6 5 4 6
31 31 29 27 25 26 24 21 19 17 15 13 12 11 10 10 10 9 7 6 6 6 6 5 5 4 5 6 5 4 6 5
32 30 30 29 28 27 24 21 19 17 15 13 12 11 11 11 10 9 7 7 7 7 6 5 5 5 5 5 5 6 6 5
34 30 30 31 31 28 25 22 20 17 16 14 13 12 11 11 10 9 8 8 7 7 7 7 6 6 6 6 6 6 6 7
34 30 31 35 33 29 26 23 20 18 17 15 14 13 12 11 11 10 9 8 8 8 8 8 7 7 6 7 7 7 7 7
33 29 30 34 32 29 26 23 21 19 17 15 14 13 13 12 11 10 10 9 8 8 8 8 8 8 8 8 7 7 7 6
Wind_Direction
178 178 175 172 168 165 160 156 151 147 145 142 138 134 132 130 129 128 125 118 104 92 77 58 37 29 32 18 17 6 3 1
182 181 180 178 174 171 166 162 159 155 151 148 144 140 139 134 131 132 127 118 111 99 78 43 33 50 10 0 353 355 359 1
186 184 181 180 179 178 175 172 171 168 166 164 158 156 151 150 138 135 129 119 110 104 70 46 12 352 348 351 353 355 354 359
190 188 185 185 184 183 182 180 181 182 181 178 176 173 163 164 153 145 139 128 118 106 76 23 358 349 349 346 346 354 1 359
193 191 190 190 189 188 189 188 192 196 194 197 199 187 187 208 185 175 166 151 135 120 358 331 334 330 332 340 348 355 355 357
195 194 195 194 194 195 197 201 206 210 208 214 196 211 209 216 204 197 195 195 188 280 322 331 332 330 336 335 344 343 347 350
200 197 197 199 201 204 209 209 212 210 205 209 211 211 220 218 213 207 206 210 256 301 315 325 328 328 330 335 343 346 343 340
196 200 200 203 204 208 205 203 206 209 211 215 215 213 215 219 217 213 219 242 277 295 308 320 328 331 331 335 339 345 346 348
202 201 204 206 208 209 210 211 211 209 213 210 207 210 211 226 224 228 243 258 267 285 305 318 326 331 334 340 337 340 340 342
204 206 207 208 214 213 218 216 215 213 211 210 212 214 217 226 235 239 240 250 257 277 291 305 314 327 334 338 337 338 341 346
207 208 209 212 214 215 219 214 214 213 212 212 216 218 223 230 234 233 247 239 253 264 278 282 296 322 328 333 340 340 345 353
208 209 211 213 215 216 218 209 211 209 211 214 217 222 226 231 227 230 241 237 245 247 237 255 278 312 333 338 339 348 355 2
209 210 212 214 216 218 216 210 210 211 213 217 220 224 225 233 234 232 228 234 232 222 224 238 277 310 341 347 349 352 352 353
211 212 212 216 219 219 208 207 210 212 214 217 221 224 224 228 226 217 222 220 207 217 225 240 261 291 322 349 341 340 347 347
213 212 214 218 219 209 204 205 207 210 213 217 221 220 218 220 211 208 209 210 218 227 236 249 257 272 282 321 319 317 325 334
212 212 213 214 209 202 202 205 207 210 212 215 216 213 213 207 204 203 206 225 232 231 238 247 249 266 284 301 319 328 316 320
210 210 211 208 203 202 203 204 206 205 209 209 208 207 205 202 202 206 221 231 226 231 236 247 249 262 275 288 299 309 309 312
207 208 210 208 202 202 202 203 201 203 204 204 204 204 204 203 209 219 227 229 233 235 238 247 250 266 272 276 290 300 300 310
205 209 211 203 200 200 201 201 202 203 202 203 203 205 208 210 218 225 227 231 234 235 241 248 253 263 270 279 283 291 295 300
202 202 194 195 196 199 201 200 203 202 202 205 208 210 213 216 221 223 227 230 234 239 245 252 255 264 265 278 277 285 289 289